This demonstration page uses our WeatherBlox Daily Observations layout. Learn more.

Left ArrowRight Arrow

39.51506, -84.39828

Hourly Observations for February 20, 2018

Temp ( °F °C ) Dew Point ( °F °C ) Humidity (%) Winds ( mph kmh ) Pressure ( in mb ) Visibility ( mi km ) Precip ( " mm )
12:15 am 00:15 Clear 63 17 55 12.6 75 75 SSW 12 19 30.06 1018 10 16 0.00 0.00
12:35 am 00:35 Clear 63 17 55 12.6 75 75 SSW 10 17 30.06 1018 10 16 0.00 0.00
12:55 am 00:55 Clear 62 16.4 55 12.5 78 78 S 8 13 30.06 1018 10 16 0.00 0.00
1:15 am 01:15 Clear 62 16.6 55 12.7 78 78 SSW 12 19 30.06 1018 10 16 0.00 0.00
1:35 am 01:35 Clear 62 16.5 55 12.7 78 78 SSW 10 17 30.06 1018 10 16 0.00 0.00
1:55 am 01:55 Clear 62 16.6 55 12.8 78 78 SSW 12 19 30.06 1018 10 16 0.00 0.00
2:15 am 02:15 Clear 62 16.4 55 12.9 80 80 SSW 12 19 30.06 1018 10 16 0.00 0.00
2:35 am 02:35 Clear 62 16.5 55 13 80 80 SSW 10 17 30.06 1018 10 16 0.00 0.00
2:55 am 02:55 Clear 62 16.4 55 12.9 80 80 SSW 9 15 30.06 1018 10 16 0.00 0.00
3:15 am 03:15 Clear 62 16.9 56 13.1 78 78 SSW 13 20 30.06 1018 10 16 0.00 0.00
3:35 am 03:35 Clear 63 17.2 56 13.2 77 77 SSW 15 24 30.06 1018 10 16 0.00 0.00
3:55 am 03:55 Partly Cloudy 63 17.4 56 13.2 77 77 SSW 15 24 30.06 1018 10 16 0.00 0.00
4:15 am 04:15 Clear 63 17.1 56 13.1 77 77 SSW 14 22 30.06 1018 10 16 0.00 0.00
4:35 am 04:35 Partly Cloudy 63 17.1 56 13.1 77 77 SSW 14 22 30.06 1018 10 16 0.00 0.00
4:55 am 04:55 Clear 62 16.8 55 13 78 78 SSW 13 20 30.06 1018 10 16 0.00 0.00
5:15 am 05:15 Clear 62 16.7 55 13 79 79 SSW 12 19 30.06 1018 10 16 0.00 0.00
5:35 am 05:35 Clear 61 16.2 55 12.9 81 81 SSW 12 19 30.06 1018 10 16 0.00 0.00
5:55 am 05:55 Clear 62 16.5 55 13 80 80 SSW 12 19 30.06 1018 10 16 0.00 0.00
6:15 am 06:15 Clear 62 16.6 55 13 79 79 SSW 14 22 30.09 1019 10 16 0.00 0.00
6:35 am 06:35 Clear 62 16.8 56 13.1 79 79 SSW 15 24 30.09 1019 10 16 0.00 0.00
6:55 am 06:55 Clear 62 16.9 56 13.2 79 79 SSW 12 19 30.09 1019 10 16 0.00 0.00
7:15 am 07:15 Clear 62 16.8 56 13.2 79 79 SSW 13 20 30.09 1019 10 16 0.00 0.00
7:35 am 07:35 Sunny 62 16.9 56 13.2 79 79 SSW 14 22 30.09 1019 10 16 0.00 0.00
7:55 am 07:55 Sunny 63 17 56 13.4 79 79 SSW 15 24 30.09 1019 10 16 0.00 0.00
8:15 am 08:15 Sunny 63 17.4 56 13.4 78 78 SSW 14 22 30.09 1019 10 16 0.00 0.00
8:35 am 08:35 Sunny 65 18.1 56 13.6 75 75 SSW 15 24 30.09 1019 10 16 0.00 0.00
8:55 am 08:55 Sunny 66 18.8 57 13.9 73 73 SSW 15 24 30.09 1019 10 16 0.00 0.00
9:15 am 09:15 Sunny 68 19.8 57 14 69 69 SSW 18 30 30.09 1019 10 16 0.00 0.00
9:35 am 09:35 Sunny 69 20.6 57 13.9 66 66 SSW 24 39 30.09 1019 10 16 0.00 0.00
9:55 am 09:55 Sunny 70 21.1 57 13.8 63 63 SW 22 35 30.09 1019 3 4 0.00 0.00
10:15 am 10:15 Mostly Cloudy 71 21.6 57 13.7 61 61 SW 25 41 30.09 1019 1 2 0.00 0.00
10:35 am 10:35 Mostly Cloudy 71 21.6 57 14 62 62 SSW 29 46 30.09 1019 1 1 0.00 0.00
10:55 am 10:55 Mostly Cloudy 71 21.9 57 13.7 60 60 SSW 29 46 30.09 1019 1 1 0.00 0.00
11:15 am 11:15 Mostly Cloudy 72 22.2 56 13.5 58 58 SW 22 35 30.09 1019 1 2 0.00 0.00
11:35 am 11:35 Partly Cloudy 71 21.9 56 13.2 58 58 SSW 29 46 30.12 1020 10 16 0.00 0.00
11:55 am 11:55 Sunny 73 22.6 56 13.3 56 56 SW 26 43 30.12 1020 10 16 0.00 0.00
12:15 pm 12:15 Sunny 74 23.2 56 13.6 55 55 SSW 23 37 30.09 1019 10 16 0.00 0.00
12:35 pm 12:35 Partly Cloudy 74 23.5 57 13.7 54 54 SW 21 33 30.09 1019 10 16 0.00 0.00
12:55 pm 12:55 Sunny 75 24 56 13.5 52 52 SSW 18 30 30.09 1019 10 16 0.00 0.00
1:15 pm 13:15 Partly Cloudy 76 24.4 57 13.7 51 51 SSW 20 31 30.09 1019 10 16 0.00 0.00
1:35 pm 13:35 Mostly Cloudy 78 25.3 56 13.6 48 48 SW 24 39 30.09 1019 10 16 0.00 0.00
1:55 pm 13:55 Partly Cloudy 78 25.3 56 13.2 47 47 SW 24 39 30.06 1018 10 16 0.00 0.00
2:15 pm 14:15 Sunny 78 25.4 56 13.2 47 47 SW 21 33 30.06 1018 10 16 0.00 0.00
2:35 pm 14:35 Partly Cloudy 78 25.3 55 12.9 46 46 SSW 26 43 30.06 1018 2 3 0.00 0.00
2:55 pm 14:55 Partly Cloudy 78 25.7 55 12.9 45 45 SSW 16 26 30.06 1018 10 16 0.00 0.00
3:15 pm 15:15 Sunny 78 25.8 55 12.5 44 44 SSW 24 39 30.06 1018 10 16 0.00 0.00
3:35 pm 15:35 Sunny 78 25.3 55 12.5 45 45 SW 20 31 30.06 1018 10 16 0.00 0.00
3:55 pm 15:55 Partly Cloudy 77 25.2 54 12.2 44 44 SW 22 35 30.06 1018 10 16 0.00 0.00
4:15 pm 16:15 Partly Cloudy 77 25 54 12.3 45 45 SSW 21 33 30.06 1018 10 16 0.00 0.00
4:35 pm 16:35 Partly Cloudy 77 25 54 12.3 45 45 SW 16 26 30.06 1018 10 16 0.00 0.00
4:55 pm 16:55 Sunny 77 24.8 54 12.2 45 45 SW 23 37 30.06 1018 10 16 0.00 0.00
5:15 pm 17:15 Sunny 76 24.5 54 12.4 47 47 SSW 17 28 30.06 1018 10 16 0.00 0.00
5:35 pm 17:35 Sunny 76 24.4 54 12.3 47 47 SSW 16 26 30.06 1018 10 16 0.00 0.00
5:55 pm 17:55 Sunny 75 23.9 53 11.8 47 47 SSW 20 31 30.06 1018 10 16 0.00 0.00
6:15 pm 18:15 Sunny 75 23.7 53 11.6 47 47 SSW 23 37 30.09 1019 10 16 0.00 0.00
6:35 pm 18:35 Clear 74 23.1 53 11.9 49 49 SSW 18 30 30.09 1019 10 16 0.00 0.00
6:55 pm 18:55 Clear 74 23.1 54 12.1 50 50 SSW 18 30 30.09 1019 10 16 0.00 0.00
7:15 pm 19:15 Clear 73 22.9 54 12.3 51 51 SSW 17 28 30.09 1019 10 16 0.00 0.00
7:35 pm 19:35 Clear 73 22.6 54 12.4 53 53 SSW 17 28 30.09 1019 10 16 0.00 0.00
7:55 pm 19:55 Clear 73 22.5 55 12.5 53 53 SSW 15 24 30.09 1019 10 16 0.00 0.00
8:15 pm 20:15 Clear 72 22.2 55 12.7 55 55 SSW 14 22 30.09 1019 10 16 0.00 0.00
8:35 pm 20:35 Clear 71 21.8 55 12.8 57 57 SSW 14 22 30.09 1019 10 16 0.00 0.00
8:55 pm 20:55 Clear 70 21.3 55 12.8 59 59 SW 10 17 30.09 1019 10 16 0.00 0.00
9:15 pm 21:15 Mostly Cloudy 70 21.1 55 12.9 60 60 SSW 9 15 30.09 1019 10 16 0.00 0.00
9:35 pm 21:35 Partly Cloudy 69 20.8 55 12.9 61 61 SSW 10 17 30.09 1019 10 16 0.00 0.00
9:55 pm 21:55 Partly Cloudy 68 20.2 55 12.9 63 63 SSW 9 15 30.09 1019 10 16 0.00 0.00
10:15 pm 22:15 Cloudy 69 20.4 56 13.1 63 63 SSW 8 13 30.09 1019 10 16 0.00 0.00
10:35 pm 22:35 Clear 69 20.7 56 13.3 63 63 S 12 19 30.09 1019 10 16 0.00 0.00
10:55 pm 22:55 Mostly Cloudy 69 20.6 56 13.4 64 64 SSW 9 15 30.09 1019 10 16 0.00 0.00
11:15 pm 23:15 Partly Cloudy 69 20.7 56 13.5 64 64 SSW 12 19 30.09 1019 10 16 0.00 0.00
11:35 pm 23:35 Mostly Cloudy 69 20.4 56 13.6 65 65 S 13 20 30.09 1019 10 16 0.00 0.00
11:55 pm 23:55 Partly Cloudy 69 20.5 57 13.7 65 65 SSW 13 20 30.09 1019 10 16 0.00 0.00

Powered by AerisWeather